Weather History for Bolton Field, OH

Change the Weather History Date:

Wednesday, September 25, 2013

  Actual Average Record
Temperature  
Mean Temperature 56 °F -  
Max Temperature 68 °F 72 °F 91 °F (2007)
Min Temperature 44 °F 51 °F 41 °F (1997)
Degree Days  
Heating Degree Days 9    
Growing Degree Days 6 (Base 50)    
Moisture  
Dew Point 49 °F    
Average Humidity 88    
Maximum Humidity 100    
Minimum Humidity 56    
Precipitation  
Precipitation 0.00 in - - ()
Sea Level Pressure  
Sea Level Pressure 29.94 in    
Wind  
Wind Speed 1 mph (North)    
Max Wind Speed 6 mph    
Max Gust Speed -    
Visibility 10 miles    
Events      
Averages and records for this station are not official NWS values.
T = Trace of Precipitation, MM = Missing Value Source: NWS Daily Summary

Daily Weather History Graph

Daily Weather History Graph

Search for Another Location

Airport:

Trip Planner

Search our weather history database for the weather conditions in past years. The results will help you decide how hot, cold, wet, or windy it might be!

Date:

Astronomy

Sep. 25, 2013 Rise Set
Actual Time 7:23 AM EDT 7:24 PM EDT
Civil Twilight 6:56 AM EDT 7:51 PM EDT
Nautical Twilight 6:24 AM EDT 8:22 PM EDT
Astronomical Twilight 5:52 AM EDT 8:54 PM EDT
Moon 11:30 PM EDT (9/25) 1:27 PM EDT (9/25)
Length of Visible Light 12h 54m
Length of Day
12h 01m
Waning Gibbous, 64% of the Moon is Illuminated
Sep 25
Waning Gibbous
Sep 26
Last Quarter
Oct 4
New
Oct 11
First Quarter
Oct 18
Full

Hourly Weather History & Observations

Time (EDT) Temp. Windchill Dew Point Humidity Pressure Visibility Wind Dir Wind Speed Gust Speed Precip Events Conditions
12:15 AM 48.4 °F - 46.8 °F 94% 29.97 in 10.0 mi Calm Calm - N/A   Clear
12:35 AM 46.6 °F - 45.5 °F 96% 29.96 in 10.0 mi Calm Calm - N/A   Clear
12:55 AM 46.2 °F - 45.3 °F 97% 29.96 in 10.0 mi Calm Calm - N/A   Clear
1:15 AM 46.6 °F - 45.7 °F 97% 29.96 in 10.0 mi Calm Calm - N/A   Clear
1:35 AM 47.1 °F - 45.1 °F 93% 29.96 in 10.0 mi Calm Calm - N/A   Clear
1:55 AM 46.8 °F - 45.5 °F 95% 29.96 in 10.0 mi Calm Calm - N/A   Clear
2:15 AM 47.7 °F - 46.6 °F 96% 29.96 in 10.0 mi Calm Calm - N/A   Clear
2:35 AM 49.6 °F - 46.9 °F 90% 29.95 in 10.0 mi NE 3.5 mph - N/A   Clear
2:55 AM 46.9 °F - 45.7 °F 95% 29.94 in 10.0 mi Calm Calm - N/A   Clear
3:35 AM 44.6 °F - 44.4 °F 99% 29.94 in 10.0 mi Calm Calm - N/A   Clear
3:55 AM 45.5 °F - 45.1 °F 99% 29.94 in 10.0 mi Calm Calm - N/A   Clear
4:15 AM 46.6 °F - 46.4 °F 99% 29.92 in 10.0 mi NNW 3.5 mph - N/A   Clear
4:35 AM 47.3 °F - 46.8 °F 98% 29.92 in 10.0 mi Calm Calm - N/A   Clear
4:55 AM 47.5 °F - 46.9 °F 98% 29.92 in 10.0 mi Calm Calm - N/A   Clear
5:35 AM 48.4 °F - 47.7 °F 97% 29.92 in 10.0 mi NNE 3.5 mph - N/A   Clear
5:55 AM 48.7 °F - 47.5 °F 95% 29.92 in 10.0 mi North 3.5 mph - N/A   Clear
6:15 AM 48.9 °F - 47.3 °F 94% 29.94 in 10.0 mi Calm Calm - N/A   Clear
6:35 AM 45.9 °F - 45.7 °F 99% 29.94 in 7.0 mi Calm Calm - N/A   Clear
6:55 AM 45.9 °F 44.6 °F 45.9 °F 100% 29.94 in 7.0 mi NNW 3.5 mph - N/A   Clear
7:15 AM 45.9 °F - 45.9 °F 100% 29.94 in 7.0 mi Calm Calm - N/A   Clear
7:50 AM 46.4 °F - 46.4 °F 100% 29.96 in 5.0 mi Calm Calm - N/A   Clear
8:50 AM 51.8 °F - 50.0 °F 94% 29.97 in 5.0 mi Calm Calm - N/A   Clear
9:50 AM 55.4 °F - 51.8 °F 88% 29.96 in 10.0 mi NNE 5.8 mph - N/A   Clear
10:58 AM 60.8 °F - 51.8 °F 72% 29.96 in 10.0 mi Calm Calm - N/A   Clear
11:50 AM 64.4 °F - 51.8 °F 64% 29.95 in 10.0 mi North 4.6 mph - N/A   Clear
12:50 PM 64.4 °F - 51.8 °F 64% 29.95 in 10.0 mi Calm Calm - N/A   Scattered Clouds
1:50 PM 66.2 °F - 51.8 °F 60% 29.93 in 10.0 mi NE 5.8 mph - N/A   Scattered Clouds
2:50 PM 68.0 °F - 51.8 °F 56% 29.92 in 10.0 mi North 3.5 mph - N/A   Scattered Clouds
7:35 PM 61.7 °F - 50.5 °F 67% 29.91 in 10.0 mi Calm Calm - N/A   Clear
7:55 PM 58.8 °F - 50.7 °F 74% 29.92 in 10.0 mi Calm Calm - N/A   Clear
8:15 PM 56.7 °F - 51.6 °F 83% 29.92 in 10.0 mi Calm Calm - N/A   Clear
8:35 PM 54.7 °F - 51.4 °F 89% 29.92 in 10.0 mi Calm Calm - N/A   Clear
8:55 PM 53.8 °F - 50.7 °F 89% 29.92 in 10.0 mi NNW 3.5 mph - N/A   Clear
9:15 PM 53.2 °F - 50.7 °F 91% 29.92 in 10.0 mi NNW 3.5 mph - N/A   Clear
9:35 PM 53.2 °F - 50.7 °F 91% 29.93 in 10.0 mi NW 3.5 mph - N/A   Clear
9:55 PM 52.9 °F - 50.5 °F 92% 29.94 in 10.0 mi NNW 3.5 mph - N/A   Clear
10:15 PM 55.0 °F - 50.7 °F 85% 29.94 in 10.0 mi NNW 3.5 mph - N/A   Clear
10:35 PM 56.5 °F - 50.7 °F 81% 29.94 in 10.0 mi NNW 3.5 mph - N/A   Clear
10:55 PM 56.5 °F - 50.9 °F 82% 29.94 in 10.0 mi NNW 3.5 mph - N/A   Clear
11:15 PM 55.9 °F - 50.4 °F 82% 29.95 in 10.0 mi NNW 4.6 mph - N/A   Clear
11:35 PM 55.8 °F - 51.1 °F 84% 29.95 in 10.0 mi North 5.8 mph - N/A   Clear
11:55 PM 54.7 °F - 50.9 °F 87% 29.95 in 10.0 mi North 5.8 mph - N/A   Scattered Clouds